KB5SQG Weather Reports


time (UTC)temp
C
wind
direction
speed
KPH
gust
KPH
rain 1hr
cm
rain 24hr
cm
rain mn
cm
humidity
%
barometer
mb
20260506232117 20 0.0 0.0 0.00 0.20 0.20 67 1014.8
20260506231117 20 0.0 0.0 0.00 0.20 0.20 68 1014.6
20260506230117 20 0.0 0.0 0.00 0.20 0.20 66 1014.7
20260506225117 20 0.0 0.0 0.00 0.20 0.20 67 1014.8
20260506224117 20 0.0 1.6 0.00 0.20 0.20 66 1014.6
20260506223117 20 0.0 0.0 0.00 0.20 0.20 65 1014.6
20260506222117 20 0.0 0.0 0.00 0.20 0.20 66 1014.6
20260506221117 20 0.0 1.6 0.00 0.20 0.20 67 1014.8
20260506220117 20 0.0 1.6 0.00 0.20 0.20 64 1014.8
20260506215117 20 0.0 0.0 0.00 0.20 0.20 67 1014.8
20260506214117 19 0.0 3.2 0.00 0.20 0.20 66 1014.9
20260506213117 18 0.0 0.0 0.00 0.20 0.20 69 1014.8
20260506212117 18 0.0 1.6 0.00 0.20 0.20 69 1014.9
20260506211117 18 0.0 0.0 0.00 0.20 0.20 69 1015.1
20260506210118 18 0.0 1.6 0.00 0.20 0.20 68 1015.1
20260506205117 18 0.0 0.0 0.00 0.20 0.20 67 1014.9
20260506204117 18 0.0 0.0 0.00 0.20 0.20 67 1015.3
20260506203117 19 45 1.6 4.8 0.00 0.20 0.20 65 1015.6
20260506202117 19 0.0 0.0 0.00 0.20 0.20 69 1015.5
20260506201118 18 0.0 1.6 0.00 0.20 0.20 68 1015.5
20260506200137 18 0.0 1.6 0.00 0.20 0.20 72 1015.9
20260506195137 17 0.0 1.6 0.00 0.20 0.20 74 1016.1
20260506194117 16 0.0 1.6 0.00 0.20 0.20 75 1016.1
20260506193117 16 0.0 1.6 0.00 0.20 0.20 74 1016.4
20260506192117 16 0.0 0.0 0.00 0.20 0.20 76 1016.5
20260506191117 15 0.0 0.0 0.00 0.20 0.20 77 1016.9
20260506190117 15 0.0 0.0 0.00 0.20 0.20 79 1017.0
20260506185117 15 0.0 0.0 0.00 0.20 0.20 80 1017.0
20260506184117 14 0.0 0.0 0.00 0.20 0.20 80 1017.3
20260506183117 14 0.0 0.0 0.00 0.20 0.20 82 1017.3
20260506182117 13 0.0 0.0 0.00 0.20 0.20 81 1017.2
20260506181117 13 0.0 0.0 0.00 0.20 0.20 82 1016.9
20260506180137 13 45 3.2 8.0 0.00 0.20 0.20 83 1016.7
20260506175117 13 0.0 0.0 0.00 0.20 0.20 84 1016.2
20260506174117 13 0.0 0.0 0.00 0.20 0.20 85 1016.4
20260506173117 12 0.0 1.6 0.00 0.20 0.20 86 1016.4
20260506172117 12 68 1.6 3.2 0.00 0.20 0.20 87 1016.6
20260506171137 12 0.0 1.6 0.00 0.20 0.20 89 1016.9
20260506170117 12 0.0 1.6 0.00 0.20 0.20 89 1017.0
20260506165117 12 0.0 1.6 0.00 0.20 0.20 89 1016.6
20260506164117 12 0.0 1.6 0.00 0.20 0.20 89 1016.1
20260506163117 12 0.0 0.0 0.00 0.20 0.20 90 1016.8
20260506162118 11 0.0 0.0 0.00 0.20 0.20 89 1016.7
20260506161118 12 0.0 1.6 0.00 0.20 0.20 90 1016.9
20260506160117 12 0.0 0.0 0.00 0.20 0.20 90 1016.9
20260506155117 12 0.0 0.0 0.03 0.20 0.20 90 1016.3
20260506154117 12 0.0 1.6 0.03 0.20 0.20 90 1016.2
20260506153137 12 0.0 1.6 0.03 0.20 0.20 90 1015.9
20260506152117 12 0.0 1.6 0.13 0.20 0.20 91 1015.8
20260506151117 12 0.0 1.6 0.20 0.20 0.20 91 1016.4
20260506150117 11 0.0 1.6 0.20 0.20 0.20 91 1016.8
20260506145117 11 0.0 1.6 0.18 0.18 0.18 91 1017.1
20260506144117 11 0.0 0.0 0.18 0.18 0.18 90 1017.7
20260506143117 11 0.0 0.0 0.18 0.18 0.18 89 1017.8
20260506142117 11 45 3.2 4.8 0.08 0.08 0.08 85 1017.9
20260506141137 11 0.0 0.0 0.00 0.00 0.00 83 1018.1
20260506140117 12 23 1.6 4.8 0.00 0.00 0.00 82 1016.8
20260506135118 12 45 1.6 4.8 0.00 0.00 0.00 81 1015.7
20260506134137 12 0.0 1.6 0.00 0.00 0.00 81 1016.2
20260506133117 12 0.0 3.2 0.00 0.00 0.00 81 1017.4
20260506132117 12 23 1.6 3.2 0.00 0.00 0.00 81 1016.3
20260506131117 12 0.0 3.2 0.00 0.00 0.00 81 1016.3
20260506130117 12 0.0 0.0 0.00 0.00 0.00 81 1015.6
20260506125118 12 0 1.6 1.6 0.00 0.00 0.00 81 1015.3
20260506124117 12 23 1.6 4.8 0.00 0.00 0.00 81 1015.0
20260506123117 12 0.0 0.0 0.00 0.00 0.00 80 1014.9
20260506122118 12 0 1.6 3.2 0.00 0.00 0.00 80 1014.8
20260506121117 12 23 1.6 1.6 0.00 0.00 0.00 79 1014.7
20260506120118 12 23 1.6 8.0 0.00 0.00 0.00 79 1014.6
20260506115138 13 0.0 3.2 0.00 0.00 0.00 78 1014.4
20260506114117 13 45 1.6 4.8 0.00 0.00 0.00 77 1014.3
20260506113138 13 0.0 0.0 0.00 0.00 0.00 77 1014.2
20260506112117 13 0.0 0.0 0.00 0.00 0.00 77 1014.1
20260506111118 14 0.0 1.6 0.00 0.00 0.00 77 1013.8
20260506110138 14 0.0 3.2 0.00 0.00 0.00 76 1013.6
20260506105117 15 23 1.6 6.4 0.00 0.00 0.00 76 1013.3
20260506104115 15 0.0 1.6 0.00 0.00 0.00 76 1013.4
20260506103137 15 23 3.2 4.8 0.00 0.00 0.00 77 1013.1
20260506102117 15 23 1.6 3.2 0.00 0.00 0.00 77 1012.8
20260506101117 15 0.0 3.2 0.00 0.00 0.00 77 1012.7
20260506100115 15 0.0 0.0 0.00 0.00 0.00 78 1012.6
20260506095138 15 0.0 0.0 0.00 0.00 0.00 78 1012.4
20260506094135 15 0.0 0.0 0.00 0.00 0.00 77 1012.1
20260506093118 15 113 1.6 8.0 0.00 0.00 0.00 77 1012.1
20260506092117 15 23 1.6 3.2 0.00 0.00 0.00 78 1012.1
20260506091118 15 0.0 0.0 0.00 0.00 0.00 79 1012.0
20260506090115 16 225 1.6 4.8 0.00 0.00 0.00 78 1012.1
20260506085136 16 45 1.6 4.8 0.00 0.00 0.00 78 1012.1
20260506084116 16 0.0 0.0 0.00 0.00 0.00 78 1012.0
20260506083115 16 0.0 0.0 0.00 0.00 0.00 78 1012.0
20260506082136 16 0.0 1.6 0.00 0.00 0.00 78 1011.9
20260506081116 16 0.0 0.0 0.00 0.00 0.00 78 1011.7
20260506080116 16 0.0 1.6 0.00 0.00 0.00 78 1011.8
20260506073115 16 0.0 0.0 0.00 0.00 0.00 79 1011.7
20260506072116 16 0.0 0.0 0.00 0.00 0.00 80 1011.7
20260506071115 16 0.0 0.0 0.00 0.00 0.00 79 1011.6
20260506070116 16 0.0 3.2 0.00 0.00 0.00 79 1011.4
20260506062116 16 0.0 0.0 0.00 0.00 0.00 77 1010.9
20260506061116 16 0.0 0.0 0.00 0.00 0.00 77 1011.1
20260506060116 16 0.0 0.0 0.00 0.00 0.00 76 1011.1
20260506051116 17 0.0 0.0 0.00 0.00 0.00 74 1011.2
20260506050116 18 0.0 1.6 0.00 0.00 0.00 73 1011.0
20260506045117 18 23 3.2 8.0 0.00 0.00 0.00 72 1011.1
20260506044117 18 0.0 1.6 0.00 0.00 0.00 73 1011.0
20260506043231 18 23 3.2 3.2 0.00 0.00 0.00 72 1010.9
20260506003017 25 45 1.6 6.4 0.00 0.00 0.00 60 1006.4
20260506002017 26 0.0 1.6 0.00 0.00 0.00 59 1005.8
20260506001017 26 0.0 1.6 0.00 0.00 0.00 58 1005.9
20260506000017 27 0.0 0.0 0.00 0.00 0.00 54 1005.7
20260505235017 28 45 1.6 4.8 0.00 0.00 0.00 54 1005.7
20260505234057 29 23 3.2 8.0 0.00 0.00 0.00 53 1005.6
20260505233017 31 68 3.2 4.8 0.00 0.00 0.00 50 1005.2